Tracking 31027 objects as of 19-Jul-2025
HD Live streaming from Space Station
objects crossing your sky now

METEOR 2-12 DEB

Track METEOR 2-12 DEB now!
10-day predictions


NORAD ID: 45518
Int'l Code: 1985-013D
Perigee: 873.3 km
Apogee: 907.0 km
Inclination: 82.5 °
Period: 102.6 minutes
Semi major axis: 7261 km
RCS: Unknown
Launch date: February 6, 1985
Source: Commonwealth of Independent States (former USSR) (CIS)
Launch site: PLESETSK MISSILE AND SPACE COMPLEX (PKMTR)

Note: This is SATELLITE DEBRIS
Your satellite tracking list
KORSAT 7
Track 1 satellite(s)




NASA's NSSDC Master Catalog

Two Line Element Set (TLE):
1 45518U 85013D   25195.27339210  .00001269  00000-0  80468-3 0  9996
2 45518  82.5361 187.3898 0023172 340.8218  19.2078 14.03121348 73481
Source of the keplerian elements: AFSPC